Latest Weather Observations for Fowlers Gap

IDN60801

Issued at 12:05 pm EDT Saturday 20 December 2014 (issued every 30 minutes, with the page automatically refreshed every 10 minutes)

About weather observations | Map of weather stations | Latest weather observations for NSW | Other Formats
Station Details ID: 046128 Name: FOWLERS GAP AWS Lat: -31.09 Lon: 141.70 Height: 181.0 m
Data from the previous 72 hours. | See also: Recent months at Fowlers Gap
Date/Time
EDT
Temp
°C
App
Temp
°C
Dew
Point
Rel
Hum
%
Delta-T
°C
Wind Press
QNH
hPa
Press
MSL
hPa
Rain
since 9 am
mm
Dir
 
Spd
km/h
Gust
km/h
Spd
kts
Gust
kts
20/12:00pm 27.7 22.7 1.2 18 12.8 ESE 17 26 9 14 1017.2 1016.2 0.0
20/11:30am 27.2 22.1 0.8 18 12.6 ESE 17 28 9 15 1017.4 1016.4 0.0
20/11:00am 26.3 21.0 1.6 20 11.9 SE 19 30 10 16 1017.8 1016.8 0.0
20/10:30am 26.0 20.5 0.6 19 12.0 SE 19 30 10 16 1017.9 1016.9 0.0
20/10:00am 25.4 19.9 0.8 20 11.6 SE 19 26 10 14 1018.0 1017.0 0.0
20/09:30am 24.2 19.1 0.5 21 11.0 SE 17 24 9 13 1018.1 1017.1 0.0
20/09:00am 23.1 18.0 0.9 23 10.3 SE 17 24 9 13 1018.2 1017.2 0.0
20/08:30am 22.0 16.9 0.5 24 9.8 SSE 17 22 9 12 1017.9 1016.9 0.0
20/08:00am 21.0 17.0 0.2 25 9.4 SSE 11 17 6 9 1017.7 1016.7 0.0
20/07:30am 18.7 14.7 0.3 29 8.1 S 11 13 6 7 1017.6 1016.6 0.0
20/07:00am 16.4 12.9 -1.2 30 7.4 SSW 7 7 4 4 1017.3 1016.3 0.0
20/06:30am 16.7 12.9 -0.5 31 7.4 SW 9 11 5 6 1017.2 1016.2 0.0
20/06:00am 17.4 14.1 0.1 31 7.5 SSE 7 13 4 7 1016.8 1015.8 0.0
20/05:30am 16.5 13.2 -0.2 32 7.2 S 7 11 4 6 1016.1 1015.1 0.0
20/05:00am 16.7 12.9 -0.5 31 7.4 S 9 11 5 6 1015.8 1014.8 0.0
20/04:30am 18.5 14.9 0.6 30 8.0 SSE 9 13 5 7 1015.7 1014.7 0.0
20/04:00am 18.5 14.8 0.2 29 8.1 SSE 9 15 5 8 1015.7 1014.7 0.0
20/03:30am 18.2 14.0 -0.6 28 8.2 SSE 11 13 6 7 1016.0 1015.0 0.0
20/03:00am 18.3 14.5 -0.5 28 8.2 SSE 9 11 5 6 1016.0 1015.0 0.0
20/02:30am 18.9 14.8 -0.5 27 8.5 SSE 11 11 6 6 1016.3 1015.3 0.0
20/02:00am 19.4 15.2 -0.6 26 8.8 S 11 11 6 6 1016.6 1015.6 0.0
20/01:30am 20.1 16.0 -0.5 25 9.1 S 11 13 6 7 1016.9 1015.9 0.0
20/01:00am 21.8 16.9 -0.2 23 9.9 SSE 15 19 8 10 1017.1 1016.1 0.0
20/12:30am 22.2 17.3 -0.5 22 10.2 SE 15 19 8 10 1017.4 1016.4 0.0
20/12:00am 22.8 16.9 -0.6 21 10.5 SSE 20 26 11 14 1017.4 1016.4 0.0
 
Date/Time
EDT
Temp
°C
App
Temp
°C
Dew
Point
Rel
Hum
%
Delta-T
°C
Wind Press
QNH
hPa
Press
MSL
hPa
Rain
since 9 am
mm
Dir
 
Spd
km/h
Gust
km/h
Spd
kts
Gust
kts
19/11:30pm 23.3 17.6 -0.9 20 10.9 SE 19 24 10 13 1017.7 1016.7 0.0
19/11:00pm 23.7 17.7 -1.3 19 11.2 SSE 20 26 11 14 1017.5 1016.5 0.0
19/10:30pm 24.4 18.4 -1.4 18 11.6 SSE 20 30 11 16 1017.2 1016.2 0.0
19/10:00pm 24.8 18.5 -1.1 18 11.7 SSE 22 30 12 16 1016.9 1015.9 0.0
19/09:30pm 25.4 19.4 -1.4 17 12.2 SSE 20 28 11 15 1016.7 1015.7 0.0
19/09:00pm 26.0 20.0 -1.7 16 12.5 SSE 20 30 11 16 1016.3 1015.3 0.0
19/08:30pm 26.9 20.5 -1.9 15 13.1 SSE 22 30 12 16 1016.0 1015.0 0.0
19/08:00pm 28.0 21.3 -4.0 12 14.1 SSE 22 32 12 17 1015.7 1014.7 0.0
19/07:30pm 28.8 21.7 -4.6 11 14.7 S 24 35 13 19 1015.3 1014.3 0.0
19/07:00pm 29.3 22.2 -4.2 11 14.9 SSW 24 32 13 17 1014.8 1013.9 0.0
19/06:30pm 29.5 22.4 -4.0 11 15.0 S 24 39 13 21 1014.7 1013.8 0.0
19/06:00pm 29.8 24.1 -3.8 11 15.1 S 17 32 9 17 1014.7 1013.8 0.0
19/05:30pm 29.5 24.2 -4.0 11 15.0 SW 15 26 8 14 1014.8 1013.9 0.0
19/05:00pm 29.8 23.7 -3.8 11 15.1 SW 19 32 10 17 1015.2 1014.2 0.0
19/04:30pm 29.5 22.6 -2.9 12 14.8 S 24 33 13 18 1015.5 1014.5 0.0
19/04:00pm 29.2 23.8 -1.0 14 14.2 SW 17 33 9 18 1015.9 1014.9 0.0
19/03:30pm 28.8 23.9 -0.4 15 13.8 S 15 22 8 12 1016.2 1015.2 0.0
19/03:00pm 27.8 23.0 0.5 17 13.0 S 15 26 8 14 1016.6 1015.6 0.0
19/02:30pm 27.5 23.2 1.1 18 12.7 SW 13 32 7 17 1016.7 1015.7 0.0
19/02:00pm 27.4 22.6 2.5 20 12.3 SW 17 30 9 16 1017.1 1016.1 0.0
19/01:30pm 25.2 20.4 2.6 23 11.0 SW 17 28 9 15 1017.6 1016.6 0.0
19/01:00pm 24.8 20.3 4.0 26 10.4 ESE 17 30 9 16 1017.9 1016.9 0.0
19/12:30pm 23.4 19.3 4.4 29 9.5 SSE 15 22 8 12 1018.1 1017.1 0.0
19/12:00pm 24.0 20.1 5.4 30 9.5 SSE 15 22 8 12 1018.1 1017.1 0.0
19/11:30am 22.3 17.4 5.3 33 8.5 S 20 30 11 16 1018.3 1017.3 0.0
19/11:00am 22.0 17.2 5.4 34 8.3 SE 20 32 11 17 1018.2 1017.2 0.0
19/10:30am 21.8 16.6 5.3 34 8.3 SSE 22 30 12 16 1018.3 1017.3 0.0
19/10:00am 21.1 15.4 5.1 35 7.9 SE 24 33 13 18 1018.4 1017.4 0.0
19/09:30am 20.8 14.8 5.2 36 7.7 SSE 26 33 14 18 1018.2 1017.2 0.0
19/09:00am 19.6 13.2 5.3 39 7.0 SSE 28 39 15 21 1017.8 1016.8 0.0
19/08:30am 19.1 12.4 5.6 41 6.7 SSE 30 39 16 21 1017.5 1016.5 0.0
19/08:00am 18.6 12.3 5.8 43 6.3 SSE 28 44 15 24 1017.1 1016.1 0.0
19/07:30am 18.3 12.1 6.2 45 6.0 SSE 28 41 15 22 1016.8 1015.8 0.0
19/07:00am 18.0 12.2 6.2 46 5.9 SSE 26 37 14 20 1016.4 1015.4 0.0
19/06:30am 18.0 12.5 5.9 45 6.0 SSE 24 35 13 19 1015.7 1014.7 0.0
19/06:00am 18.6 11.4 6.1 44 6.2 SSE 33 46 18 25 1015.1 1014.1 0.0
19/05:30am 19.2 12.9 5.6 41 6.7 SSE 28 35 15 19 1014.8 1013.9 0.0
19/05:00am 19.9 13.6 5.5 39 7.1 SSE 28 41 15 22 1014.5 1013.6 0.0
19/04:30am 20.5 15.0 6.1 39 7.3 SSE 24 39 13 21 1014.2 1013.2 0.0
19/04:00am 21.1 16.0 6.2 38 7.6 SSE 22 30 12 16 1014.0 1013.0 0.0
19/03:30am 21.6 15.4 6.3 37 7.8 SSE 28 37 15 20 1013.6 1012.6 0.0
19/03:00am 22.2 16.5 4.7 32 8.7 SSE 24 32 13 17 1013.5 1012.5 0.0
19/02:30am 22.7 16.6 4.7 31 9.0 SSE 26 35 14 19 1013.4 1012.4 0.0
19/02:00am 23.3 18.2 4.3 29 9.4 SSE 20 30 11 16 1013.4 1012.4 0.0
19/01:30am 24.1 16.8 4.5 28 9.8 SSE 32 43 17 23 1013.1 1012.1 0.0
19/01:00am 24.8 17.6 2.9 24 10.7 S 30 43 16 23 1013.1 1012.1 0.0
19/12:30am 25.5 18.5 2.2 22 11.3 S 28 43 15 23 1012.9 1011.9 0.0
19/12:00am 26.0 20.3 2.7 22 11.4 S 22 33 12 18 1012.8 1011.8 0.0
 
Date/Time
EDT
Temp
°C
App
Temp
°C
Dew
Point
Rel
Hum
%
Delta-T
°C
Wind Press
QNH
hPa
Press
MSL
hPa
Rain
since 9 am
mm
Dir
 
Spd
km/h
Gust
km/h
Spd
kts
Gust
kts
18/11:30pm 26.6 21.3 3.2 22 11.6 S 20 30 11 16 1012.6 1011.6 0.0
18/11:00pm 27.2 22.1 3.0 21 12.1 S 19 24 10 13 1012.4 1011.4 0.0
18/10:30pm 28.2 20.6 3.1 20 12.6 S 32 39 17 21 1011.9 1010.9 0.0
18/10:00pm 28.7 23.0 2.8 19 13.0 SSW 22 30 12 16 1011.6 1010.6 0.0
18/09:30pm 29.5 22.6 2.7 18 13.5 SSW 28 39 15 21 1011.1 1010.1 0.0
18/09:00pm 30.3 23.0 2.5 17 14.0 SSW 30 44 16 24 1010.8 1009.8 0.0
18/08:30pm 31.0 23.4 3.1 17 14.3 SW 32 44 17 24 1010.5 1009.5 0.0
18/08:00pm 31.9 24.3 3.0 16 14.8 SW 32 46 17 25 1010.4 1009.4 0.0
18/07:30pm 32.7 23.4 2.7 15 15.4 WSW 41 54 22 29 1009.9 1008.9 0.0
18/07:00pm 33.3 23.5 2.2 14 15.9 WSW 43 61 23 33 1009.5 1008.5 0.0
18/06:56pm 33.3 23.5 2.2 14 15.9 WSW 43 61 23 33 1009.4 1008.3 0.0
18/06:30pm 33.6 24.8 1.4 13 16.3 SW 37 54 20 29 1009.1 1008.1 0.0
18/06:18pm 34.2 25.1 1.9 13 16.5 SW 39 59 21 32 1008.9 1007.9 0.0
18/06:00pm 34.4 24.8 0.9 12 16.9 WSW 41 52 22 28 1008.7 1007.7 0.0
18/05:43pm 34.2 23.4 -0.4 11 17.0 WSW 46 65 25 35 1008.6 1007.6 0.0
18/05:30pm 34.1 22.9 -0.5 11 17.0 WSW 48 65 26 35 1008.6 1007.6 0.0
18/05:18pm 34.4 22.9 -0.3 11 17.1 WSW 50 65 27 35 1008.3 1007.3 0.0
18/05:06pm 34.4 24.4 0.9 12 16.9 SW 43 61 23 33 1008.6 1007.6 0.0
18/05:00pm 34.4 25.0 -0.3 11 17.2 WSW 39 61 21 33 1008.6 1007.6 0.0
18/04:58pm 35.2 26.2 0.3 11 17.5 WSW 37 61 20 33 1008.5 1007.5 0.0
18/04:53pm 34.6 25.6 -0.1 11 17.2 W 37 56 20 30 1008.5 1007.5 0.0
18/04:45pm 34.7 24.9 -0.1 11 17.3 WSW 41 57 22 31 1008.5 1007.5 0.0
18/04:30pm 35.3 26.5 -0.9 10 17.8 SW 35 54 19 29 1008.5 1007.5 0.0
18/04:08pm 35.4 25.9 -0.8 10 17.8 SW 39 61 21 33 1008.5 1007.5 0.0
18/04:00pm 35.5 26.6 -2.2 9 18.2 SW 35 52 19 28 1008.6 1007.6 0.0
18/03:34pm 34.5 25.7 -1.5 10 17.4 WSW 35 57 19 31 1008.7 1007.7 0.0
18/03:30pm 35.1 26.7 -1.1 10 17.7 SW 33 57 18 31 1008.8 1007.8 0.0
18/03:00pm 34.8 26.4 -2.7 9 17.9 WSW 32 54 17 29 1008.9 1007.9 0.0
18/02:40pm 34.7 25.9 -1.4 10 17.5 SW 35 57 19 31 1008.9 1007.9 0.0
18/02:30pm 34.4 25.5 -1.6 10 17.4 SW 35 48 19 26 1009.0 1008.0 0.0
18/02:00pm 34.5 25.7 -1.5 10 17.5 SW 35 56 19 30 1009.3 1008.2 0.0
18/01:46pm 34.2 25.9 -1.7 10 17.3 SW 32 50 17 27 1009.1 1008.1 0.0
18/01:30pm 33.6 24.7 -2.2 10 17.0 SW 35 48 19 26 1009.5 1008.5 0.0
18/01:03pm 32.4 24.7 -3.1 10 16.5 SW 28 46 15 25 1009.8 1008.8 0.0
18/01:00pm 32.8 24.7 -2.8 10 16.7 SW 30 46 16 25 1009.9 1008.9 0.0
18/12:45pm 32.6 24.1 -2.9 10 16.6 SW 32 50 17 27 1010.0 1009.0 0.0
18/12:30pm 33.1 24.5 -4.0 9 17.1 SSW 32 46 17 25 1010.2 1009.2 0.0
18/12:00pm 31.7 25.1 -3.6 10 16.2 WSW 22 37 12 20 1010.2 1009.2 0.0
18/11:40am 32.1 25.9 -3.3 10 16.4 W 20 39 11 21 1010.3 1009.3 0.0
18/11:30am 30.3 25.5 -2.2 12 15.1 WNW 13 20 7 11 1010.3 1009.3 0.0
18/11:00am 29.4 25.4 -1.9 13 14.5 NW 9 17 5 9 1010.3 1009.3 0.0
18/10:30am 27.8 24.5 -1.2 15 13.5 SE 6 9 3 5 1010.4 1009.4 0.0
18/10:00am 26.0 23.1 -0.9 17 12.4 S 4 7 2 4 1010.4 1009.4 0.0
18/09:30am 24.8 20.7 -0.4 19 11.6 WSW 11 15 6 8 1010.4 1009.4 0.0
18/09:00am 22.5 20.5 -0.3 22 10.3 CALM 0 0 0 0 1010.0 1009.0 0.0
18/08:30am 21.6 18.8 -0.4 23 9.9 SW 4 7 2 4 1009.6 1008.6 0.0
18/08:00am 21.3 19.2 -0.6 23 9.8 CALM 0 0 0 0 1009.1 1008.1 0.0
18/07:30am 20.6 18.1 -0.7 24 9.4 WNW 2 7 1 4 1008.5 1007.5 0.0
18/07:00am 20.4 16.6 -0.8 24 9.4 SW 9 11 5 6 1008.3 1007.3 0.0
18/06:30am 20.5 17.3 -0.7 24 9.4 W 6 7 3 4 1007.9 1006.9 0.0
18/06:00am 20.9 18.9 -0.4 24 9.5 CALM 0 0 0 0 1007.2 1006.2 0.0
18/05:30am 21.1 18.3 -0.2 24 9.5 W 4 7 2 4 1006.8 1005.8 0.0
18/05:00am 22.3 19.0 0.2 23 10.1 E 7 11 4 6 1006.6 1005.6 0.0
18/04:30am 22.4 19.0 -0.3 22 10.3 SE 7 9 4 5 1006.5 1005.5 0.0
18/04:00am 22.4 20.0 -0.3 22 10.3 SE 2 7 1 4 1006.3 1005.3 0.0
18/03:30am 22.7 19.4 -0.1 22 10.4 SSE 7 11 4 6 1006.4 1005.4 0.0
18/03:00am 23.5 19.8 -0.1 21 10.8 ESE 9 13 5 7 1006.7 1005.7 0.0
18/02:30am 23.9 19.0 -0.4 20 11.1 E 15 19 8 10 1006.1 1005.1 0.0
18/02:00am 24.2 19.0 -0.2 20 11.2 ESE 17 24 9 13 1006.5 1005.5 0.0
18/01:30am 24.2 19.3 -0.2 20 11.2 ESE 15 19 8 10 1006.2 1005.2 0.0
18/01:00am 24.1 20.9 -0.2 20 11.2 SE 6 15 3 8 1006.6 1005.6 0.0
18/12:30am 23.6 21.4 -1.3 19 11.2 CALM 0 7 0 4 1006.9 1005.9 0.0
18/12:00am 23.9 21.7 -1.8 18 11.5 CALM 0 0 0 0 1006.6 1005.6 0.0
 
Date/Time
EDT
Temp
°C
App
Temp
°C
Dew
Point
Rel
Hum
%
Delta-T
°C
Wind Press
QNH
hPa
Press
MSL
hPa
Rain
since 9 am
mm
Dir
 
Spd
km/h
Gust
km/h
Spd
kts
Gust
kts
17/11:30pm 25.1 20.8 -1.6 17 12.0 SSE 11 15 6 8 1007.0 1006.0 0.0
17/11:00pm 24.9 21.0 -1.8 17 12.0 S 9 11 5 6 1006.8 1005.8 0.0
17/10:30pm 26.2 22.2 -2.4 15 12.8 SSE 9 13 5 7 1006.6 1005.6 0.0
17/10:00pm 26.0 21.4 -4.5 13 13.2 S 11 17 6 9 1006.3 1005.3 0.0
17/09:30pm 26.6 22.3 -5.1 12 13.6 SW 9 9 5 5 1006.1 1005.1 0.0
17/09:00pm 28.2 23.9 -5.0 11 14.5 SW 9 11 5 6 1005.8 1004.8 0.0
17/08:30pm 29.7 24.6 -5.1 10 15.3 SW 13 15 7 8 1005.7 1004.7 0.0
17/08:00pm 31.1 26.4 -5.5 9 16.2 SW 11 15 6 8 1005.5 1004.5 0.0
17/07:30pm 31.7 25.9 -5.0 9 16.4 WSW 17 28 9 15 1005.4 1004.4 0.0
17/07:00pm 32.2 26.0 -4.6 9 16.7 WSW 19 24 10 13 1005.2 1004.2 0.0
17/06:30pm 32.3 26.0 -6.1 8 16.9 WSW 19 28 10 15 1005.0 1004.0 0.0
17/06:00pm 33.0 28.0 -4.0 9 17.1 SW 13 24 7 13 1004.9 1003.9 0.0
17/05:30pm 32.7 27.7 -4.3 9 16.9 SSW 13 17 7 9 1005.2 1004.2 0.0
17/05:00pm 31.4 27.4 -2.6 11 15.9 W 9 19 5 10 1005.6 1004.6 0.0
17/04:30pm 31.7 26.6 -2.3 11 15.9 WSW 15 26 8 14 1006.0 1005.0 0.0
17/04:00pm 30.7 27.1 -1.9 12 15.3 SW 7 13 4 7 1006.3 1005.3 0.0
17/03:30pm 29.4 24.3 -1.9 13 14.5 SE 15 20 8 11 1006.6 1005.6 0.0
17/03:00pm 29.4 24.4 -0.9 14 14.3 SW 15 24 8 13 1006.9 1005.9 0.0
17/02:30pm 28.4 24.0 0.2 16 13.5 SE 13 20 7 11 1007.4 1006.4 0.0
17/02:00pm 27.6 23.6 0.4 17 13.0 SSE 11 20 6 11 1007.8 1006.8 0.0
17/01:30pm 27.5 22.5 1.1 18 12.7 S 17 24 9 13 1007.8 1006.8 0.0
17/01:00pm 26.5 22.2 1.0 19 12.2 S 13 20 7 11 1008.1 1007.1 0.0
17/12:30pm 25.5 20.6 2.2 22 11.3 S 17 24 9 13 1008.4 1007.4 0.0

Other Formats:

Comma delimited format used in spreadsheet applications
http://www.bom.gov.au/fwo/IDN60801/IDN60801.94686.axf

JavaScript Object Notation format (JSON) in row-major order
http://www.bom.gov.au/fwo/IDN60801/IDN60801.94686.json